User: anonymous   Login
Location: Theydon Bois
(51.6750°N, 0.1050°E)
Time: 11:17:35
(UTC+00:00)
Language:

Cosmos 921 Rocket - Orbit

View from above orbital plane
View from above orbital plane
View from above satellite
View from above satellite

Ground track
Ground track

The orbit data is extracted from the following two-line orbital elements,

1 10096U 77055B   17349.63707314 +.00000056 +00000-0 +80580-5 0  9992
2 10096 075.8352 037.3265 0041797 104.7078 255.8751 14.88596883189044
Epoch (UTC): 15 December 2017 15:17:23
Eccentricity: 0.0041797
inclination: 75.8352°
perigee height: 573 km
apogee height: 631 km
right ascension of ascending node: 37.3265°
argument of perigee: 104.7078°
revolutions per day: 14.88596883
mean anomaly at epoch: 255.8751°
orbit number at epoch: 18904

The dashed part of the orbit path shows where the satellite is in the earth's shadow,  

DLR